GLO1663 SBGO-SBCY

Flight info

Callsign GLO1663
Flight time N/A
Altitude 34000
Route UBSUS DCT MABMA
Aircraft B738/M-SDE2E3FGHIRWXY/LB1

Departure

Time 2026-04-21 13:13
Airport Santa Genoveva International Airport (SBGO)

Arrival

Time N/A
Airport Várzea Grande–Marechal Rondon International Airport (SBCY)
Time Latitude Longitude Altitude Speed Heading
2026-04-21 12:31 -16.63197 -49.22670 2458 ft 0 kts 212°
2026-04-21 13:05 -16.63190 -49.22666 2458 ft 2 kts 212°
2026-04-21 13:05 -16.63176 -49.22655 2458 ft 3 kts 226°
2026-04-21 13:05 -16.63165 -49.22638 2458 ft 3 kts 244°
2026-04-21 13:06 -16.63159 -49.22617 2458 ft 3 kts 262°
2026-04-21 13:06 -16.63158 -49.22601 2458 ft 0 kts 278°
2026-04-21 13:08 -16.63156 -49.22608 2458 ft 4 kts 288°
2026-04-21 13:09 -16.63132 -49.22660 2458 ft 12 kts 297°
2026-04-21 13:09 -16.63094 -49.22713 2458 ft 12 kts 305°
2026-04-21 13:09 -16.63037 -49.22806 2458 ft 18 kts 302°
2026-04-21 13:09 -16.62958 -49.22933 2458 ft 23 kts 303°
2026-04-21 13:10 -16.62898 -49.23028 2458 ft 11 kts 303°
2026-04-21 13:10 -16.62839 -49.23113 2458 ft 18 kts 309°
2026-04-21 13:10 -16.62727 -49.23164 2458 ft 14 kts 344°
2026-04-21 13:10 -16.62700 -49.23172 2458 ft 6 kts 345°
2026-04-21 13:11 -16.62637 -49.23167 2458 ft 12 kts 43°
2026-04-21 13:11 -16.62652 -49.23099 2458 ft 9 kts 122°
2026-04-21 13:11 -16.62653 -49.23097 2458 ft 0 kts 122°
2026-04-21 13:11 -16.62653 -49.23096 2458 ft 0 kts 122°
2026-04-21 13:12 -16.62682 -49.23050 2458 ft 33 kts 122°
2026-04-21 13:12 -16.62938 -49.22626 2458 ft 102 kts 121°
2026-04-21 13:13 -16.63427 -49.21815 2458 ft 161 kts 122°
2026-04-21 13:13 -16.64065 -49.20775 2968 ft 171 kts 123°
2026-04-21 13:13 -16.64720 -49.19707 3710 ft 180 kts 121°
2026-04-21 13:13 -16.65360 -49.18540 4357 ft 191 kts 120°
2026-04-21 13:14 -16.66070 -49.17282 4795 ft 211 kts 121°
2026-04-21 13:14 -16.66992 -49.16005 5194 ft 232 kts 141°
2026-04-21 13:14 -16.68529 -49.15373 5628 ft 251 kts 176°
2026-04-21 13:14 -16.70314 -49.15639 6058 ft 270 kts 199°
2026-04-21 13:15 -16.72074 -49.16416 6747 ft 274 kts 207°
2026-04-21 13:15 -16.73774 -49.17271 7533 ft 276 kts 210°
2026-04-21 13:15 -16.75537 -49.18248 7847 ft 276 kts 212°
2026-04-21 13:15 -16.77230 -49.19188 7988 ft 278 kts 212°
2026-04-21 13:16 -16.78936 -49.20130 7995 ft 277 kts 212°
2026-04-21 13:16 -16.80639 -49.21066 7998 ft 276 kts 211°
2026-04-21 13:16 -16.82341 -49.21996 7999 ft 276 kts 211°
2026-04-21 13:16 -16.84046 -49.22923 7999 ft 276 kts 211°
2026-04-21 13:17 -16.85714 -49.23921 7991 ft 273 kts 221°
2026-04-21 13:17 -16.86957 -49.25388 8095 ft 271 kts 241°
2026-04-21 13:17 -16.87768 -49.27145 8843 ft 271 kts 249°
2026-04-21 13:17 -16.88439 -49.28985 9693 ft 272 kts 252°
2026-04-21 13:18 -16.89053 -49.30869 10472 ft 275 kts 253°
2026-04-21 13:18 -16.89671 -49.32796 11092 ft 285 kts 253°
2026-04-21 13:18 -16.90312 -49.34794 11408 ft 304 kts 253°
2026-04-21 13:18 -16.91015 -49.36985 11693 ft 322 kts 253°
2026-04-21 13:19 -16.91741 -49.39250 12134 ft 334 kts 253°
2026-04-21 13:19 -16.92483 -49.41567 12779 ft 338 kts 253°
2026-04-21 13:19 -16.93224 -49.43880 13435 ft 341 kts 253°
2026-04-21 13:19 -16.93987 -49.46239 14084 ft 345 kts 252°
2026-04-21 13:20 -16.94507 -49.47849 14513 ft 347 kts 252°
2026-04-21 13:20 -16.95535 -49.51036 15339 ft 351 kts 253°
2026-04-21 13:20 -16.96317 -49.53473 15946 ft 355 kts 253°
2026-04-21 13:20 -16.97104 -49.55926 16538 ft 358 kts 253°
2026-04-21 13:21 -16.97858 -49.58282 17087 ft 361 kts 253°
2026-04-21 13:21 -17.00300 -49.65925 18745 ft 370 kts 253°
2026-04-21 13:22 -17.01118 -49.68490 19265 ft 373 kts 253°
2026-04-21 13:22 -17.01674 -49.70234 19611 ft 375 kts 253°
2026-04-21 13:22 -17.02500 -49.72823 20107 ft 378 kts 253°
2026-04-21 13:22 -17.03179 -49.75490 20586 ft 380 kts 261°
2026-04-21 13:23 -17.03452 -49.78248 21050 ft 383 kts 269°
2026-04-21 13:23 -17.03385 -49.81048 21321 ft 388 kts 274°
2026-04-21 13:23 -17.03171 -49.83865 21358 ft 389 kts 275°
2026-04-21 13:23 -17.02917 -49.86634 21364 ft 387 kts 275°
2026-04-21 13:24 -17.02656 -49.89451 21368 ft 385 kts 275°
2026-04-21 13:24 -17.02399 -49.92232 21370 ft 385 kts 275°
2026-04-21 13:24 -17.02141 -49.95021 21370 ft 385 kts 275°
2026-04-21 13:24 -17.01881 -49.97819 21370 ft 385 kts 275°
2026-04-21 13:25 -17.01623 -50.00602 21370 ft 385 kts 275°
2026-04-21 13:25 -17.01366 -50.03362 21370 ft 385 kts 275°
2026-04-21 13:25 -17.01107 -50.06152 21370 ft 385 kts 275°
2026-04-21 13:25 -17.00847 -50.08938 21370 ft 385 kts 275°
2026-04-21 13:26 -17.00588 -50.11723 21370 ft 385 kts 275°
2026-04-21 13:26 -17.00333 -50.14517 21370 ft 385 kts 275°
2026-04-21 13:26 -17.00081 -50.17278 21370 ft 385 kts 275°
2026-04-21 13:26 -16.99820 -50.20139 21573 ft 391 kts 275°
2026-04-21 13:27 -16.99561 -50.22965 22127 ft 390 kts 275°
2026-04-21 13:27 -16.99300 -50.25794 22583 ft 393 kts 275°
2026-04-21 13:27 -16.99038 -50.28639 22993 ft 395 kts 275°
2026-04-21 13:27 -16.98772 -50.31506 23398 ft 398 kts 275°
2026-04-21 13:28 -16.98503 -50.34402 23794 ft 401 kts 275°
2026-04-21 13:28 -16.98235 -50.37278 24172 ft 403 kts 275°
2026-04-21 13:28 -16.97962 -50.40202 24545 ft 406 kts 275°
2026-04-21 13:28 -16.97686 -50.43152 24909 ft 408 kts 275°
2026-04-21 13:29 -16.97409 -50.46108 25261 ft 411 kts 275°
2026-04-21 13:29 -16.97130 -50.49084 25606 ft 413 kts 275°
2026-04-21 13:29 -16.96848 -50.52077 25941 ft 415 kts 275°
2026-04-21 13:29 -16.96565 -50.55087 26268 ft 418 kts 275°
2026-04-21 13:30 -16.96280 -50.58110 26586 ft 420 kts 275°
2026-04-21 13:30 -16.95992 -50.61149 26896 ft 422 kts 275°
2026-04-21 13:30 -16.95703 -50.64207 27198 ft 424 kts 275°
2026-04-21 13:30 -16.95411 -50.67284 27495 ft 426 kts 275°
2026-04-21 13:31 -16.95117 -50.70369 27781 ft 428 kts 276°
2026-04-21 13:31 -16.94822 -50.73472 28059 ft 430 kts 276°
2026-04-21 13:31 -16.94524 -50.76600 28332 ft 432 kts 276°
2026-04-21 13:31 -16.94224 -50.79738 28598 ft 434 kts 276°
2026-04-21 13:32 -16.93924 -50.82871 28854 ft 436 kts 276°
2026-04-21 13:32 -16.93621 -50.86033 29123 ft 437 kts 276°
2026-04-21 13:32 -16.93319 -50.89182 29481 ft 436 kts 276°
2026-04-21 13:32 -16.93020 -50.92297 29834 ft 435 kts 276°
2026-04-21 13:33 -16.92717 -50.95446 30177 ft 435 kts 276°
2026-04-21 13:33 -16.92414 -50.98585 30522 ft 434 kts 276°
2026-04-21 13:33 -16.92111 -51.01722 30863 ft 433 kts 276°
2026-04-21 13:33 -16.91808 -51.04853 31203 ft 433 kts 276°
2026-04-21 13:34 -16.91505 -51.07976 31535 ft 432 kts 276°
2026-04-21 13:34 -16.91202 -51.11106 31864 ft 431 kts 276°
2026-04-21 13:34 -16.90899 -51.14217 32186 ft 431 kts 276°
2026-04-21 13:34 -16.90596 -51.17331 32508 ft 430 kts 276°
2026-04-21 13:35 -16.90293 -51.20437 32825 ft 430 kts 276°
2026-04-21 13:35 -16.89990 -51.23539 33140 ft 429 kts 276°
2026-04-21 13:35 -16.89687 -51.26642 33453 ft 428 kts 276°
2026-04-21 13:35 -16.89385 -51.29724 33762 ft 428 kts 276°
2026-04-21 13:36 -16.89084 -51.32795 34060 ft 427 kts 276°
2026-04-21 13:36 -16.88779 -51.35892 34151 ft 430 kts 276°
2026-04-21 13:36 -16.88166 -51.42114 34166 ft 429 kts 276°
2026-04-21 13:37 -16.87557 -51.48284 34170 ft 426 kts 276°